Regional Weather Roundup
Issued by NWS

Home | Current Version | Previous Version | Graphics & Text | Print | Product List | Glossary On
Versions: 1 2 3 4 5 6 7 8 9 10 11 12 13 14 15 16 17 18 19 20 21 22 23 24
000
ASUS45 KCYS 231310
RWRWY

WYOMING REGIONAL WEATHER ROUNDUP
NATIONAL WEATHER SERVICE CHEYENNE WY
700 AM MDT THU OCT 23 2014

NOTE:  "FAIR" INDICATES FEW OR NO CLOUDS BELOW 12,000 FEET
WITH NO SIGNIFICANT WEATHER AND/OR OBSTRUCTIONS TO VISIBILITY.

WYZ001-231400-
YELLOWSTONE NATIONAL PARK

CITY           SKY/WX    TMP DP  RH WIND       PRES   REMARKS
LK YELLOWSTONE   N/A     30  27  88 CALM      30.19F
W YELLOWSTONE  NOT AVBL

$$
WYZ002>013-054>058-071-098>099-231400-
NORTHERN WYOMING

CITY           SKY/WX    TMP DP  RH WIND       PRES   REMARKS
JACKSON        PTCLDY    30  28  93 CALM      30.18S
CODY           CLOUDY    54  25  32 SW10      30.01S
GREYBULL       CLOUDY    34  22  61 CALM      30.01F
WORLAND        CLOUDY    35  21  56 CALM      30.02S
SHERIDAN       CLOUDY    35  24  64 CALM      29.93S
BUFFALO        CLOUDY    43  13  29 SW7       29.96F
GILLETTE       MOCLDY    44  19  36 S10       29.95F
HULETT         FAIR      36  25  64 CALM      29.97
NEWCASTLE      FAIR      32  23  69 CALM      30.04

$$
WYZ014>020-022>026-101>103-231400-
CENTRAL WYOMING

CITY           SKY/WX    TMP DP  RH WIND       PRES   REMARKS
BIG PINEY      MOCLDY    23  20  88 NW5       30.23S WCI  17
PINEDALE       MOSUNNY   27  23  86 NW5       30.22F WCI  21
DUBOIS         FAIR      39  18  41 N20G25    30.12F WCI  30
LANDER         MOCLDY    40  22  48 NW5       30.08F
RIVERTON       CLOUDY    42  18  37 SW9       30.09S
CASPER         CLOUDY    45  20  36 SW10      30.09S
DOUGLAS        MOCLDY    27  18  69 CALM      30.08S

$$
WYZ021-027>030-104>119-231400-
SOUTHERN WYOMING

CITY           SKY/WX    TMP DP  RH WIND       PRES   REMARKS
EVANSTON       PTCLDY    38  22  52 S7        30.22S WCI  33
FORT BRIDGER   FAIR      42  22  46 CALM      30.24F
ROCK SPRINGS   PTCLDY    36  21  54 CALM      30.23R
DIXON          FAIR      29  28  94 CALM      30.29S
RAWLINS        PTCLDY    39  28  64 CALM      30.22S
SARATOGA       FAIR      32  28  86 S5        30.25R WCI  27
LARAMIE        PTCLDY    43  28  55 SW14      30.20F
CHEYENNE       PTCLDY    38  28  67 CALM      30.16R
TORRINGTON     PTCLDY    31  24  75 SE7       30.08R WCI  24
PINE BLUFFS    FAIR      32  30  93 S3        30.15S

$$



USA.gov is the U.S. government's official web portal to all federal, state and local government web resources and services.